Probability
0 0 0 0 0 0 0 0 0 0 0 0 0 0 0 0 0 0 0 0 0 0 0 0 0 0 0 0 0 0 0 0 0 0 0 0 0 0 0 0 0 0 0 0
0 0 0 0 0 0 0 0 0 0 0 0 0 0 0 0 0 0 0 0 0 0 0 0 0 0 0 0 0 0 0 0 0 0 0 0 0 0 0 0 0 0 0 0
0 0 0 0 0 0 0 0 0 0 0 0 0 0 0 0 0 0 0 0 0 0 0 0 0 0 0 0 0 0 0 0 0 0 0 0 0 0 0 0 0 0 0 0
0 0 0 0 0 0 0 0 0 0 0 0 0 0 0 0 0 0 0 0 0 0 0 0 0 0 0 0 0 0 0 0 0 0 0 0 0 0 0 0 0 0 0 0
0 0 0 0 0 0 0 0 0 0 0 0 0 0 0 0 0 0 0 0 0 0 0 0 0 0 0 0 0 0 0 0 0 0 0 0 0 0 0 0 0 0 0 0
0 0 0 0 0 0 0 0 0 0 0 0 0 0 0 0 0 0 0 0 0 0 0 0 0 0 0 0 0 0 0 0 0 0 0 0 0 0 0 0 0 0 0 0
0 0 0 0 0 0 0 0 0 0 0 0 0 0 0 0 0 0 0 0 0 0 0 0 0 0 0 0 0 0 0 0 0 0 0 0 0 0 0 0 0 0 0 0
0 0 0 0 0 0 0 0 0 0 0 0 0 0 0 0 0 0 0 0 0 0 0 0 0 0 0 0 0 0 0 0 0 0 0 0 0 0 0 0 0 0 0 0
0 0 0 0 0 0 0 0 0 0 0 0 0 0 0 0 0 0 0 0 0 0 0 0 0 0 0 0 0 0 0 0 0 0 0 0 0 0 0 0 0 0 0 0
0 0 0 0 0 0 0 0 0 0 0 0 0 0 0 0 0 0 0 0 0 0 0 0 0 0 0 0 0 0 0 0 0 0 0 0 0 0 0 0 0 0 0 0
0 0 0 0 0 0 0 0 0 0 0 0 0 0 0 0 0 0 0 0 0 0 0 0 0 0 0 0 0 0 0 0 0 0 0 0 0 0 0 0 0 0 0 0
0 0 0 0 0 0 0 0 0 0 0 0 0 0 0 0 0 0 0 0 0 0 0 0 0 0 0 0 0 0 0 0 0 0 0 0 0 0 0 0 0 0 0 0
0 0 0 0 0 0 0 0 0 0 0 0 0 0 0 0 0 0 0 0 0 0 0 0 0 0 0 0 0 0 0 0 0 0 0 0 0 0 0 0 0 0 0 0
0 0 0 0 0 0 0 0 0 0 0 0 0 0 0 0 0 0 0 0 0 0 0 0 0 0 0 0 0 0 0 0 0 0 0 0 0 0 0 0 0 0 0 0
0 0 0 0 0 0 0 0 0 0 0 0 0 0 0 0 0 0 0 0 0 0 0 0 0 0 0 0 0 0 0 0 0 0 0 0 0 0 0 0 0 0 0 0
0 0 0 0 0 0 0 0 0 0 0 0 0 0 0 0 0 0 0 0 0 0 0 0 0 0 0 0 0 0 0 0 0 0 0 0 0 0 0 0 0 0 0 0
0 0 0 0 0 0 0 0 0 0 0 0 0 0 0 0 0 0 0 0 0 0 0 0 0 0 0 0 0 0 0 0 0 0 0 0 0 0 0 0 0 0 0 0
0 0 0 0 0 0 0 0 0 0 0 0 0 0 0 0 0 0 0 0 0 0 0 0 0 0 0 0 0 0 0 0 0 0 0 0 0 0 0 0 0 0 0 0
0 0 0 0 0 0 0 0 0 0 0 0 0 0 0 0 0 0 0 0 0 0 0 0 0 0 0 0 0 0 0 0 0 0 0 0 0 0 0 0 0 0 0 0
0 0 0 0 0 0 0 0 0 0 0 0 0 0 0 0 0 0 0 0 0 0 0 0 0 0 0 0 0 0 0 0 0 0 0 0 0 0 0 0 0 0 0 0
0 0 0 0 0 0 0 0 0 0 0 0 0 0 0 0 0 0 0 0 0 0 0 0 0 0 0 0 0 0 0 0 0 0 0 0 0 0 0 0 0 0 0 0
0 0 0 0 0 0 0 0 0 0 0 0 0 0 0 0 0 0 0 0 0 0 0 0 0 0 0 0 0 0 0 0 0 0 0 0 0 0 0 0 0 0 0 0
0 0 0 0 0 0 0 0 0 0 0 0 0 0 0 0 0 0 0 0 0 0 0 0 0 0 0 0 0 0 0 0 0 0 0 0 0 0 0 0 0 0 0 0
0 0 0 0 0 0 0 0 0 0 0 0 0 0 0 0 0 0 0 0 0 0 0 0 0 0 0 0 0 0 0 0 0 0 0 0 0 0 0 0 0 0 0 0
0 0 0 0 0 0 0 0 0 0 0 0 0 0 0 0 0 0 0 0 0 0 0 0 0 0 0 0 0 0 0 0 0 0 0 0 0 0 0 0 0 0 0 0
0 0 0 0 0 0 0 0 0 0 0 0 0 0 0 0 0 0 0 0 0 0 0 0 0 0 0 0 0 0 0 0 0 0 0 0 0 0 0 0 0 0 0 0
Wind_Speed
9 6 11 13 14 14 13 14 18 20 12 10 16 18 14 11 11 12 14 14 15 14 12 13 15 14 14 13 14 14 12 11 9 8 7 6 6 5 5 5 7 7 6 5
7 15 18 13 12 12 12 14 19 17 8 8 11 15 12 11 16 18 17 17 18 11 4 9 12 13 14 15 15 16 15 14 12 9 7 5 7 5 5 5 6 7 7 6
19 10 7 8 9 11 14 14 17 18 11 6 5 10 14 13 16 17 16 17 17 12 10 12 12 12 13 15 17 16 16 14 13 10 7 5 5 4 4 5 5 6 7 6
14 12 14 14 14 13 20 11 12 13 10 7 8 13 9 10 11 12 14 16 16 11 10 14 14 15 16 15 13 13 14 13 13 11 10 11 9 7 7 6 5 6 7 7
11 6 10 13 14 12 12 1 3 5 6 7 5 16 10 8 10 12 14 15 14 8 10 15 17 17 14 13 13 13 13 13 13 12 12 11 8 6 5 6 8 7 6 7
13 3 4 5 1 1 1 1 3 3 2 10 11 16 13 10 13 10 11 13 10 4 8 11 12 12 11 12 12 13 14 14 14 14 13 13 12 10 10 10 9 7 5 5
10 9 7 5 3 2 4 4 3 5 6 13 9 14 9 9 9 11 12 12 6 7 8 9 12 14 15 16 16 15 16 15 14 15 15 14 13 13 14 12 11 10 7 5
7 9 14 12 13 11 11 10 10 8 11 14 7 15 8 8 9 12 12 8 8 8 8 9 11 13 15 17 17 18 18 17 16 16 15 12 11 9 8 10 9 9 7 6
8 9 4 8 7 5 8 10 8 6 9 13 12 10 6 5 8 12 10 7 8 9 10 11 11 13 14 17 19 21 20 18 17 16 14 12 11 10 9 9 8 7 7 6
7 11 4 3 2 4 2 3 3 6 6 13 19 17 10 10 18 12 6 6 9 10 11 13 13 14 14 15 16 16 17 18 15 14 14 11 11 10 9 9 10 9 8 7
10 9 7 5 12 11 7 4 7 6 7 8 13 16 4 4 5 7 8 10 11 11 13 14 13 13 13 12 13 15 16 15 15 16 13 12 11 10 9 9 9 9 7 8
5 6 10 11 10 11 13 16 15 11 13 9 10 24 6 4 3 5 8 9 9 11 10 11 12 11 12 14 15 16 16 16 16 14 12 12 11 11 10 9 9 9 8 8
1 2 5 9 7 3 6 10 15 13 9 11 16 24 5 8 8 6 7 8 8 9 8 8 9 12 14 15 15 16 16 16 14 14 14 14 14 13 12 10 9 9 9 8
4 8 14 19 16 8 6 8 8 10 12 17 23 26 29 19 16 15 13 11 10 10 9 9 9 12 14 15 16 17 17 16 15 15 16 17 16 14 11 10 9 10 10 9
8 12 19 25 27 27 26 21 15 16 17 20 24 24 30 27 20 19 18 14 10 11 11 12 12 13 14 14 15 16 17 16 17 17 18 16 13 12 11 11 11 10 10 9
12 13 15 24 28 28 28 26 28 31 28 30 30 34 33 30 27 26 23 15 11 12 11 11 12 13 14 15 16 16 16 16 16 17 16 14 14 14 13 13 12 12 11 9
11 12 12 17 22 21 28 34 36 31 32 31 33 37 34 31 31 28 19 13 11 10 9 10 11 12 14 14 15 17 16 14 16 16 15 15 16 15 14 13 13 12 11 10
16 18 14 12 16 30 19 21 31 35 36 34 28 26 28 31 26 16 12 13 11 11 12 12 11 11 11 10 11 11 11 14 16 15 15 16 17 16 15 14 13 12 10 10
25 25 20 16 25 24 12 13 20 26 30 27 29 30 29 26 19 18 19 15 13 14 13 11 9 8 7 7 8 10 11 13 15 17 18 18 18 18 16 16 14 13 11 9
27 27 25 23 25 20 14 17 20 20 24 17 23 23 18 14 12 14 13 9 8 9 7 5 3 2 3 4 8 12 13 15 18 19 17 17 17 17 17 16 14 11 10 9
13 20 27 29 29 15 5 7 6 14 8 13 13 13 14 10 9 12 13 11 8 6 5 3 2 2 3 5 9 11 13 16 14 13 14 15 15 15 14 13 12 12 10 9
10 11 14 16 22 11 16 11 7 12 16 14 13 14 15 15 15 14 14 14 13 10 7 4 4 4 3 6 10 12 13 11 12 14 15 15 15 13 12 13 12 11 10 9
5 4 6 7 8 10 6 7 13 12 13 12 13 14 15 17 17 14 13 13 12 10 8 5 6 6 5 7 10 12 10 12 15 15 16 15 15 12 13 14 14 11 9 7
7 7 8 10 10 18 21 12 6 6 8 11 12 12 14 18 17 16 14 13 12 11 9 7 7 8 9 10 11 9 11 15 16 17 16 15 15 14 12 10 11 10 9 8
11 14 16 19 16 15 10 13 16 15 13 13 13 13 15 17 18 17 16 15 12 11 10 9 11 13 14 12 13 12 16 18 17 17 16 15 14 14 13 11 9 10 8 8
9 14 15 19 20 20 22 16 15 16 17 16 17 18 14 14 18 19 18 16 14 13 12 11 13 15 14 14 16 16 19 21 21 19 17 14 13 12 12 12 10 12 11 13
Wind_Direction
185 204 219 219 215 230 256 270 274 275 274 211 226 242 250 258 267 263 262 263 259 254 241 190 172 163 160 160 162 165 167 172 169 168 169 162 172 174 170 167 161 159 159 154
201 224 235 249 259 265 269 274 275 282 281 224 236 251 257 252 257 258 260 264 264 263 230 157 159 159 164 165 167 170 175 179 179 180 177 163 161 179 177 168 162 163 158 155
223 227 217 231 249 258 255 249 260 266 270 222 258 266 247 240 242 249 249 253 259 251 203 172 167 168 166 173 175 179 180 181 181 176 168 153 137 125 156 170 170 169 158 154
250 246 247 252 246 243 262 256 264 265 264 250 220 273 238 236 243 244 241 249 256 251 195 171 170 174 179 179 175 178 180 180 181 176 176 171 172 175 180 173 167 160 157 163
235 208 212 232 243 243 258 274 285 281 267 271 244 273 256 214 234 235 230 240 255 254 182 169 174 179 179 174 176 180 179 183 182 181 182 183 185 177 158 151 150 154 163 171
258 275 220 219 80 293 106 75 266 237 258 254 206 243 267 198 225 223 225 237 241 201 160 162 167 166 169 172 177 182 186 189 186 185 187 192 188 176 161 158 161 167 170 171
246 231 200 160 162 204 170 173 272 255 229 245 192 233 250 192 192 189 211 228 192 153 153 162 166 173 178 181 185 187 191 195 191 189 194 198 195 184 178 171 171 170 170 168
252 241 187 181 197 195 192 185 193 233 254 274 252 246 235 200 199 197 208 185 147 154 169 181 185 184 187 187 187 189 194 198 194 195 197 197 196 191 186 177 172 173 168 161
243 260 158 178 184 202 184 210 214 226 279 285 259 253 238 207 222 217 207 155 173 185 191 193 191 191 193 193 194 194 196 199 199 198 192 194 194 192 184 174 164 162 157 152
232 268 222 92 75 272 266 229 189 195 226 264 276 275 269 230 221 218 193 196 218 210 205 202 198 196 197 199 198 196 199 200 198 193 193 193 190 186 177 170 169 164 157 150
209 235 231 170 196 197 186 214 211 216 203 213 268 271 171 115 138 163 191 207 216 217 212 206 200 198 195 192 194 199 201 198 196 195 190 187 184 178 174 176 173 163 154 147
216 221 248 237 226 215 215 208 196 210 233 230 242 258 183 268 212 195 215 224 227 226 217 198 192 186 188 195 198 201 202 201 200 192 182 182 175 172 174 175 170 157 149 144
9 235 282 305 296 271 233 230 227 234 246 245 249 265 257 250 269 249 240 241 237 231 221 201 189 190 198 201 201 201 202 202 193 182 180 179 178 178 176 172 165 156 147 146
160 205 222 237 248 271 264 266 252 242 243 251 253 267 282 276 277 277 267 249 231 228 224 220 210 202 204 203 201 200 201 197 188 182 182 184 183 177 168 164 163 156 149 152
170 222 228 238 247 256 261 263 262 257 253 256 263 264 268 273 266 266 268 263 243 233 226 222 219 216 212 207 203 202 201 193 186 183 185 185 171 162 159 162 160 153 154 157
196 226 227 234 235 239 246 251 251 250 249 251 255 260 260 264 269 269 269 270 262 250 240 229 226 223 219 212 208 203 200 191 182 183 182 169 162 162 163 163 161 158 158 162
203 218 225 239 235 238 237 235 239 243 242 243 246 250 258 262 260 262 272 275 258 251 249 240 236 232 227 218 207 203 197 180 176 176 169 164 163 162 162 162 163 163 164 168
216 222 233 244 231 234 232 224 231 239 244 245 244 249 252 256 262 268 264 262 269 269 264 255 246 244 238 222 204 192 171 168 171 169 166 164 163 162 161 165 167 164 164 171
226 232 240 242 246 250 240 221 224 235 244 246 252 254 256 261 272 269 262 257 254 256 256 253 246 242 239 211 178 155 158 161 166 172 172 169 166 164 166 171 169 164 163 169
227 231 240 243 247 248 231 222 233 248 257 257 261 266 270 268 261 267 281 283 265 259 260 259 255 235 208 175 148 153 164 170 180 179 173 167 165 166 170 171 164 159 160 162
224 227 234 244 250 252 264 263 262 250 290 347 349 2 6 352 330 329 338 343 340 328 323 332 311 252 212 163 154 167 177 188 179 162 158 161 163 165 165 160 155 150 152 155
260 248 247 250 251 252 22 7 345 330 335 341 357 1 353 339 333 336 340 338 337 333 322 308 278 260 211 172 171 185 193 174 153 155 158 159 158 159 160 154 148 148 150 153
307 345 331 323 308 325 334 314 292 296 315 327 327 321 319 316 312 310 306 303 302 297 288 263 240 240 218 194 188 196 182 156 156 156 159 158 158 159 159 155 149 149 154 161
308 318 305 297 291 304 306 304 319 333 317 304 300 303 306 306 302 297 293 289 284 278 270 252 229 226 221 204 201 190 164 159 158 162 162 163 163 159 158 154 150 153 161 169
297 302 295 290 292 296 301 323 326 322 315 307 304 300 297 298 294 291 289 286 281 277 270 243 225 228 224 203 198 181 166 161 164 166 167 169 169 160 157 154 155 157 164 169
272 281 284 289 302 302 305 317 328 326 324 323 318 310 302 293 291 291 288 286 282 276 271 250 232 229 222 201 195 183 172 168 167 170 173 173 169 163 154 144 144 162 159 169